EW6131 Weather Reports


Display with metric or nautical units.
time (UTC)temp
F
wind
direction
speed
MPH
gust
MPH
rain 1hr
in
rain 24hr
in
rain mn
in
humidity
%
barometer
mb
20260504221530 56 163 4.0 13.0 0.00 0.00 0.00 79 1011.0
20260504220030 56 202 6.0 13.0 0.00 0.00 0.00 78 1010.8
20260504214530 57 230 4.0 12.0 0.00 0.00 0.00 77 1010.8
20260504213027 57 153 4.0 9.0 0.00 0.00 0.00 77 1010.8
20260504211530 57 175 4.0 12.0 0.00 0.00 0.00 75 1010.7
20260504210034 58 196 3.0 10.0 0.00 0.00 0.00 74 1010.8
20260504204530 58 200 3.0 13.0 0.00 0.00 0.00 74 1010.9
20260504203049 58 0 5.0 12.0 0.00 0.00 0.00 73 1010.7
20260504201528 58 205 4.0 12.0 0.00 0.00 0.00 73 1010.9
20260504200028 58 246 6.0 14.0 0.00 0.00 0.00 73 1011.1
20260504194533 58 260 5.0 14.0 0.00 0.00 0.00 73 1011.2
20260504193026 59 236 6.0 16.0 0.00 0.00 0.00 71 1011.1
20260504191530 60 242 6.0 12.0 0.00 0.00 0.00 68 1011.2
20260504190030 60 223 6.0 17.0 0.00 0.00 0.00 68 1011.2
20260504184533 61 207 4.0 13.0 0.00 0.00 0.00 67 1011.4
20260504183032 60 250 7.0 15.0 0.00 0.00 0.00 68 1011.7
20260504181528 60 237 5.0 14.0 0.00 0.00 0.00 70 1011.8
20260504180029 60 242 4.0 14.0 0.00 0.00 0.00 70 1011.8
20260504174528 60 195 4.0 11.0 0.00 0.00 0.00 71 1012.0
20260504173027 59 215 5.0 11.0 0.00 0.00 0.00 71 1012.1
20260504171527 59 272 6.0 12.0 0.00 0.00 0.00 73 1012.4
20260504081533 53 230 4.0 10.0 0.00 0.00 0.00 71 1013.0
20260504044532 52 246 0.0 3.0 0.00 0.00 0.00 74 1012.4
20260504043030 53 0 0.0 5.0 0.00 0.00 0.00 72 1012.4
20260504041529 53 249 1.0 7.0 0.00 0.00 0.00 72 1012.3
20260504040031 53 0 1.0 5.0 0.00 0.00 0.00 73 1012.3
20260504034529 53 251 1.0 4.0 0.00 0.00 0.00 74 1012.2
20260504033034 52 277 0.0 3.0 0.00 0.00 0.00 77 1012.0
20260504031531 50 278 0.0 3.0 0.00 0.00 0.00 79 1011.9
20260504030030 48 0 0.0 2.0 0.00 0.00 0.00 73 1011.9
20260504024528 48 0 0.0 0.0 0.00 0.00 0.00 64 1012.0
20260504023030 49 0 0.0 0.0 0.00 0.00 0.00 57 1011.9
20260504021530 50 0 0.0 0.0 0.00 0.00 0.00 53 1011.8
20260504020030 50 0 0.0 0.0 0.00 0.00 0.00 52 1011.9
20260504014541 51 0 0.0 0.0 0.00 0.00 0.00 49 1011.7
20260504013034 52 0 0.0 0.0 0.00 0.00 0.00 46 1011.6
20260504011528 52 0 0.0 0.0 0.00 0.00 0.00 44 1011.4
20260504010030 53 0 0.0 0.0 0.00 0.00 0.00 43 1011.3
20260504004528 54 0 0.0 0.0 0.00 0.00 0.00 40 1011.0
20260504003027 54 0 0.0 0.0 0.00 0.00 0.00 39 1010.9
20260504001527 55 0 0.0 0.0 0.00 0.00 0.00 37 1010.6
20260504000039 56 0 0.0 4.0 0.00 0.00 0.00 35 1010.3
20260503234530 57 0 0.0 3.0 0.00 0.00 0.00 34 1010.1
20260503233029 57 0 0.0 8.0 0.00 0.00 0.00 33 1009.9
20260503231530 58 0 0.0 14.0 0.00 0.00 0.00 32 1010.0
20260503230031 58 316 3.0 10.0 0.00 0.00 0.00 31 1009.9
20260503224536 59 0 0.0 8.0 0.00 0.00 0.00 33 1009.7
20260503223028 59 278 1.0 15.0 0.00 0.00 0.00 32 1009.8